Showing default

IRIDE-MS2-HEO-1, 62697

Orbit data source: Space-Track

IRIDE-MS2-HEO-1, 62697 is a payload satellite in SSO that was launched on Tue, 14 Jan 2025 UTC via an FALCON 9 launch vehicle from the Air Force Western Test Range (AFWTR). Payload-class satellites include a variety of spacecraft equipped with specific instruments for various scientific and technological missions. These include communications satellites like Starlink; space stations such as the ISS; scientific satellites like the Hubble; Earth observation satellites from companies like Planet Labs, Umbra, and HawkEye 360; GPS; miniature CubeSats for education and research; and military/defense satellites.

Loading next visibility...
Identifier
62697, 2025-009CS
Orbit
SSO
Last TLE update
1 day ago
Origin
Manufacturer
ArgoTec
Mission
Operational Civil Imaging
Bus & Motor
HAWK, Unknown motor
Mass
65 kg wet, 65 kg dry
Launch date (UTC)
2025-01-14 (4 months ago)
Launch vehicle
FALCON 9
Launch site
Air Force Western Test Range (AFWTR)
Object type
Payload
Rocket body
Debris
Shape & HBR
Box + 2 Pan, 2 m
Radar Cross Section
0.683 m², Medium (>0.1 m² and < 1m²)

Expand to show TLE details & history

TLE from 1 day ago
0 IRIDE-MS2-HEO-1
1 62697U 25009CS  25139.57675445  .00002695  00000-0  26782-3 0  9999
2 62697  97.7360 219.9607 0000901 200.5643 159.5540 14.92531411 18591
Epoch: 2025-05-19T13:50Z
TLE epoch observation values (Epoch: 2025-05-19T13:50:31.584Z)
Latitude
-0.00004°
Longitude
134.84172°
Altitude
593.677 km
Speed
7.563 km/s
True Right ascension
14h 39m 50s
True Declination
0° 00' 00"
Sunlit
Object was in full shadow at epoch
Visualization orbit readout
Latitude
28.9514°
Longitude
131.68043°
Altitude
594.328 km
Speed
7.565 km/s
Apparent Right ascension
14h 21m 05s
Apparent Declination
-3° 42' 50"
Sunlit
Object is in full shadow
Visualization observer readout
Local Sidereal Time
02:13:29
Azimuth
356.79° N
Elevation
-53.757°
Doppler factor
1
Orbital elements
Apogee altitude
587.69 km
Perigee altitude
586.435 km
Semi-major axis
6,965.199 km
Eccentricity
0.00009
Inclination
97.736°
RAAN
219.9607°
Arg. of periapsis
200.5643°
True anomaly
Unknown
Mean anomaly
159.554°
Eccentric anomaly
Unknown
Mean motion
3.73373 °/min
Orbital period
96.42 mins
BSTAR
0.00026782
Loading maneuver chart data...
Loading SW <> Apogee altitude chart data...
Loading historical data...
Loading historical data...
Loading historical data...
Loading historical data...
Loading historical data...
Loading historical data...
Loading historical data...

IRIDE-MS2-HEO-1 Visibility forecast

Observer location: undefined°, undefined°

Span
Click to sort rows by Start time (UTC) header in descending order
Start Az.
Max El. time (UTC)
Max El. Az.
Max El.
End time (UTC)
End Az.
7 mins2025-05-20 17:45:30.126Z27.051° NE2025-05-20 17:49:30.126Z103.653° ESE33.758°2025-05-20 17:52:30.126Z165.823° S
5 mins2025-05-21 04:36:30.126Z117.201° SE2025-05-21 04:38:30.126Z80.782° E23.8°2025-05-21 04:41:30.126Z20.776° NNE
5 mins2025-05-21 06:12:30.126Z227.631° WSW2025-05-21 06:14:30.126Z267.081° W21.445°2025-05-21 06:17:30.126Z316.392° NNW
|